OCN52 EDDF-KMSP

Flight info

Callsign OCN52
Flight time N/A
Altitude 36000
Route OBOKA5G OBOKA Z28 DIBIR DCT BUDIP DCT MIMVA L602 EMLON M79 TENDO DCT ASLIB/N0486F380 DCT TRN DCT AMCON DCT AMLAD DCT SUNOT/M085F390 NATA HOIST/N0494F400 DCT BROME DCT PEMLU DCT YQT DCT DLH DCT MILAC BAINY4
Aircraft A359/H-SDE2E3GHIJ3J4J5LM1ORWXY/LB1D1

Departure

Time 2026-05-05 14:35
Airport Frankfurt Main Airport (EDDF)

Arrival

Time N/A
Airport Minneapolis–Saint Paul International Airport / Wold–Chamberlain Field (KMSP)
Time Latitude Longitude Altitude Speed Heading
2026-05-05 13:36 50.04937 8.57782 364 ft 0 kts 20°
2026-05-05 14:22 50.04928 8.57777 364 ft 4 kts 23°
2026-05-05 14:23 50.04906 8.57761 366 ft 4 kts 25°
2026-05-05 14:23 50.04885 8.57739 369 ft 4 kts 62°
2026-05-05 14:23 50.04881 8.57701 369 ft 4 kts 104°
2026-05-05 14:23 50.04891 8.57662 363 ft 4 kts 120°
2026-05-05 14:24 50.04905 8.57626 362 ft 4 kts 118°
2026-05-05 14:24 50.04909 8.57615 362 ft 0 kts 114°
2026-05-05 14:30 50.04906 8.57623 365 ft 4 kts 114°
2026-05-05 14:31 50.04889 8.57685 364 ft 10 kts 112°
2026-05-05 14:31 50.04853 8.57814 366 ft 15 kts 115°
2026-05-05 14:31 50.04780 8.57918 367 ft 15 kts 158°
2026-05-05 14:31 50.04684 8.57975 370 ft 15 kts 159°
2026-05-05 14:32 50.04620 8.58012 367 ft 14 kts 159°
2026-05-05 14:32 50.04569 8.58060 371 ft 5 kts 122°
2026-05-05 14:32 50.04571 8.58128 371 ft 9 kts 75°
2026-05-05 14:32 50.04600 8.58256 375 ft 13 kts 70°
2026-05-05 14:33 50.04630 8.58381 375 ft 12 kts 69°
2026-05-05 14:33 50.04656 8.58500 375 ft 9 kts 79°
2026-05-05 14:33 50.04631 8.58564 375 ft 5 kts 150°
2026-05-05 14:33 50.04617 8.58573 375 ft 0 kts 157°
2026-05-05 14:34 50.04576 8.58600 376 ft 12 kts 157°
2026-05-05 14:34 50.04491 8.58592 377 ft 13 kts 232°
2026-05-05 14:34 50.04445 8.58415 376 ft 35 kts 250°
2026-05-05 14:35 50.04286 8.57750 368 ft 94 kts 249°
2026-05-05 14:35 50.03996 8.56538 366 ft 144 kts 250°
2026-05-05 14:35 50.03603 8.54897 583 ft 166 kts 249°
2026-05-05 14:35 50.03211 8.53252 1206 ft 163 kts 249°
2026-05-05 14:36 50.02808 8.51588 1730 ft 168 kts 248°
2026-05-05 14:36 50.02464 8.49789 2046 ft 181 kts 264°
2026-05-05 14:36 50.02598 8.47771 2399 ft 195 kts 279°
2026-05-05 14:36 50.02815 8.45621 2777 ft 208 kts 278°
2026-05-05 14:37 50.02910 8.43315 3196 ft 219 kts 265°
2026-05-05 14:37 50.02617 8.40953 3727 ft 226 kts 257°
2026-05-05 14:37 50.02257 8.38535 4207 ft 234 kts 257°
2026-05-05 14:37 50.01894 8.36021 4702 ft 243 kts 258°
2026-05-05 14:38 50.01535 8.33410 5209 ft 251 kts 258°
2026-05-05 14:38 50.01192 8.30706 5728 ft 258 kts 261°
2026-05-05 14:38 50.01182 8.27916 6369 ft 262 kts 279°
2026-05-05 14:38 50.01803 8.25256 7043 ft 263 kts 297°
2026-05-05 14:39 50.02661 8.22687 7576 ft 273 kts 296°
2026-05-05 14:39 50.03551 8.20020 8164 ft 280 kts 296°
2026-05-05 14:39 50.04434 8.17300 8826 ft 284 kts 295°
2026-05-05 14:39 50.05309 8.14534 9510 ft 286 kts 295°
2026-05-05 14:40 50.06179 8.11737 10191 ft 289 kts 295°
2026-05-05 14:40 50.07198 8.09025 10817 ft 293 kts 308°
2026-05-05 14:40 50.08517 8.06566 11396 ft 300 kts 309°
2026-05-05 14:40 50.09872 8.04048 11954 ft 306 kts 309°
2026-05-05 14:41 50.11258 8.01491 12636 ft 312 kts 309°
2026-05-05 14:41 50.12659 7.98838 13006 ft 322 kts 308°
2026-05-05 14:41 50.14089 7.96099 13291 ft 337 kts 308°
2026-05-05 14:41 50.15584 7.93190 13590 ft 350 kts 307°
2026-05-05 14:42 50.17134 7.90164 13862 ft 364 kts 307°
2026-05-05 14:42 50.18743 7.87026 14194 ft 376 kts 307°
2026-05-05 14:42 50.20389 7.83815 14672 ft 382 kts 307°
2026-05-05 14:42 50.22055 7.80554 15199 ft 386 kts 307°
2026-05-05 14:43 50.23737 7.77262 15733 ft 390 kts 307°
2026-05-05 14:43 50.25633 7.74202 16263 ft 395 kts 320°
2026-05-05 14:43 50.28015 7.72010 16769 ft 401 kts 334°
2026-05-05 14:43 50.30584 7.70234 17247 ft 406 kts 335°
2026-05-05 14:44 50.33190 7.68485 17781 ft 409 kts 335°
2026-05-05 14:44 50.35806 7.66716 18326 ft 412 kts 335°
2026-05-05 14:44 50.38445 7.64919 18849 ft 415 kts 335°
2026-05-05 14:44 50.41103 7.63101 19338 ft 419 kts 334°
2026-05-05 14:45 50.43785 7.61260 19885 ft 422 kts 334°
2026-05-05 14:45 50.46482 7.59405 20416 ft 425 kts 334°
2026-05-05 14:45 50.49193 7.57537 20947 ft 428 kts 334°
2026-05-05 14:45 50.51928 7.55650 21430 ft 431 kts 334°
2026-05-05 14:46 50.54679 7.53730 21895 ft 434 kts 333°
2026-05-05 14:46 50.57316 7.51433 22369 ft 435 kts 326°
2026-05-05 14:46 50.59868 7.48859 22850 ft 437 kts 324°
2026-05-05 14:46 50.62422 7.46233 23310 ft 439 kts 324°
2026-05-05 14:47 50.64987 7.43594 23765 ft 442 kts 324°
2026-05-05 14:47 50.67571 7.40937 24203 ft 445 kts 324°
2026-05-05 14:47 50.70177 7.38257 24637 ft 448 kts 324°
2026-05-05 14:47 50.72761 7.35492 25078 ft 449 kts 320°
2026-05-05 14:48 50.75064 7.32189 25498 ft 447 kts 308°
2026-05-05 14:48 50.77022 7.28372 25896 ft 448 kts 304°
2026-05-05 14:48 50.78867 7.24393 26320 ft 449 kts 302°
2026-05-05 14:48 50.80656 7.20347 26743 ft 451 kts 301°
2026-05-05 14:49 50.82437 7.16251 27143 ft 453 kts 301°
2026-05-05 14:49 50.84228 7.12130 27536 ft 455 kts 301°
2026-05-05 14:49 50.86032 7.08000 27919 ft 458 kts 301°
2026-05-05 14:49 50.87856 7.03850 28284 ft 460 kts 301°
2026-05-05 14:50 50.89690 6.99692 28659 ft 462 kts 301°
2026-05-05 14:50 50.91537 6.95524 29001 ft 463 kts 301°
2026-05-05 14:50 50.93393 6.91331 29316 ft 466 kts 301°
2026-05-05 14:50 50.95253 6.87118 29648 ft 467 kts 301°
2026-05-05 14:51 50.97117 6.82888 29974 ft 469 kts 301°
2026-05-05 14:51 50.98989 6.78636 30284 ft 471 kts 301°
2026-05-05 14:51 51.00868 6.74357 30590 ft 473 kts 300°
2026-05-05 14:51 51.02750 6.70067 30897 ft 474 kts 300°
2026-05-05 14:52 51.04635 6.65760 31176 ft 476 kts 300°
2026-05-05 14:52 51.06502 6.61490 31446 ft 477 kts 300°
2026-05-05 14:52 51.08394 6.57153 31690 ft 479 kts 300°
2026-05-05 14:52 51.10293 6.52793 31928 ft 480 kts 300°
2026-05-05 14:53 51.12194 6.48421 32186 ft 481 kts 300°
2026-05-05 14:53 51.14098 6.44032 32443 ft 482 kts 300°
2026-05-05 14:53 51.16004 6.39633 32733 ft 482 kts 299°
2026-05-05 14:53 51.17903 6.35245 33037 ft 480 kts 299°
2026-05-05 14:54 51.19793 6.30870 33367 ft 479 kts 299°
2026-05-05 14:54 51.21677 6.26505 33704 ft 477 kts 299°
2026-05-05 14:54 51.23553 6.22147 34010 ft 475 kts 298°
2026-05-05 14:54 51.25419 6.17804 34295 ft 474 kts 298°
2026-05-05 14:55 51.27279 6.13463 34514 ft 474 kts 298°
2026-05-05 14:55 51.29124 6.09124 34741 ft 473 kts 298°
2026-05-05 14:55 51.30940 6.04731 34966 ft 472 kts 297°
2026-05-05 14:55 51.32728 6.00337 35192 ft 471 kts 297°
2026-05-05 14:56 51.34507 5.95938 35386 ft 471 kts 298°
2026-05-05 14:56 51.36304 5.91528 35462 ft 475 kts 299°
2026-05-05 14:56 51.38349 5.87356 35629 ft 480 kts 307°
2026-05-05 14:56 51.40727 5.83561 35810 ft 483 kts 311°
2026-05-05 14:57 51.45736 5.76257 35882 ft 490 kts 314°
2026-05-05 14:57 51.50859 5.69023 35879 ft 490 kts 314°
2026-05-05 14:58 51.55973 5.61783 35889 ft 490 kts 314°
2026-05-05 14:58 51.61065 5.54510 35888 ft 490 kts 314°
2026-05-05 14:59 51.66150 5.47208 35888 ft 489 kts 313°
2026-05-05 14:59 51.71222 5.39894 35888 ft 489 kts 313°
2026-05-05 15:00 51.75439 5.33801 35897 ft 490 kts 313°
2026-05-05 15:00 51.81364 5.25215 35904 ft 490 kts 313°
2026-05-05 15:01 51.86435 5.17841 35906 ft 490 kts 313°
2026-05-05 15:01 51.91467 5.10496 35906 ft 490 kts 313°
2026-05-05 15:02 51.96523 5.03097 35906 ft 490 kts 313°
2026-05-05 15:02 52.01581 4.95673 35906 ft 490 kts 313°
2026-05-05 15:03 52.06646 4.88212 35907 ft 487 kts 314°
2026-05-05 15:03 52.11668 4.80788 35917 ft 489 kts 314°
2026-05-05 15:04 52.16700 4.73330 35915 ft 489 kts 314°
2026-05-05 15:04 52.21725 4.65857 35915 ft 489 kts 314°
2026-05-05 15:05 52.29232 4.54647 35918 ft 490 kts 314°
2026-05-05 15:06 52.34244 4.47133 35917 ft 490 kts 314°
2026-05-05 15:06 52.39271 4.39573 35919 ft 490 kts 314°
2026-05-05 15:07 52.44287 4.32002 35926 ft 490 kts 314°
2026-05-05 15:07 52.49297 4.24418 35925 ft 490 kts 314°
2026-05-05 15:08 52.54305 4.16812 35930 ft 490 kts 313°
2026-05-05 15:08 52.59305 4.09196 35941 ft 490 kts 313°
2026-05-05 15:09 52.64297 4.01564 35952 ft 490 kts 313°
2026-05-05 15:09 52.69277 3.93927 35953 ft 490 kts 314°
2026-05-05 15:10 52.74261 3.86260 35961 ft 489 kts 314°
2026-05-05 15:10 52.79230 3.78592 35961 ft 489 kts 313°
2026-05-05 15:11 52.84189 3.70910 35966 ft 488 kts 313°
2026-05-05 15:11 52.89133 3.63226 35971 ft 488 kts 313°
2026-05-05 15:12 52.94071 3.55528 35979 ft 487 kts 313°
2026-05-05 15:12 52.99006 3.47814 35979 ft 487 kts 313°
2026-05-05 15:13 53.03925 3.40092 35982 ft 486 kts 313°
2026-05-05 15:13 53.08387 3.31763 35971 ft 480 kts 300°
2026-05-05 15:14 53.11167 3.21828 35971 ft 472 kts 283°
2026-05-05 15:14 53.12739 3.11227 35968 ft 472 kts 280°
2026-05-05 15:15 53.14100 3.00619 35971 ft 472 kts 279°
2026-05-05 15:15 53.15460 2.89915 35971 ft 472 kts 279°
2026-05-05 15:16 53.16834 2.79219 35971 ft 472 kts 279°
2026-05-05 15:16 53.18213 2.68506 35971 ft 473 kts 279°
2026-05-05 15:17 53.19587 2.57788 35971 ft 473 kts 279°
2026-05-05 15:17 53.21754 2.47399 35971 ft 478 kts 295°
2026-05-05 15:18 53.25146 2.37822 35980 ft 480 kts 300°
2026-05-05 15:18 53.28153 2.29921 35980 ft 481 kts 300°
2026-05-05 15:19 53.31755 2.20521 35979 ft 480 kts 300°
2026-05-05 15:19 53.35334 2.11081 35982 ft 480 kts 300°
2026-05-05 15:20 53.38865 2.01684 35985 ft 480 kts 300°
2026-05-05 15:20 53.42408 1.92207 35986 ft 480 kts 300°
2026-05-05 15:21 53.45949 1.82698 35986 ft 480 kts 300°
2026-05-05 15:21 53.49478 1.73189 35985 ft 480 kts 300°
2026-05-05 15:22 53.53002 1.63660 35988 ft 480 kts 300°
2026-05-05 15:22 53.56520 1.54108 35995 ft 480 kts 300°
2026-05-05 15:23 53.60027 1.44552 35985 ft 480 kts 300°
2026-05-05 15:23 53.63527 1.34978 35990 ft 480 kts 300°
2026-05-05 15:24 53.67020 1.25386 36002 ft 480 kts 300°
2026-05-05 15:24 53.70504 1.15779 36002 ft 480 kts 300°
2026-05-05 15:25 53.73985 1.06141 36002 ft 480 kts 299°
2026-05-05 15:25 53.77457 0.96493 36002 ft 480 kts 299°
2026-05-05 15:26 53.80918 0.86846 36005 ft 480 kts 299°
2026-05-05 15:26 53.84374 0.77168 36004 ft 480 kts 299°
2026-05-05 15:27 53.87818 0.67482 36009 ft 480 kts 299°
2026-05-05 15:27 53.91255 0.57788 36019 ft 480 kts 299°
2026-05-05 15:28 53.94679 0.48088 36013 ft 479 kts 299°
2026-05-05 15:28 53.98075 0.38429 36016 ft 479 kts 299°
2026-05-05 15:29 54.01485 0.28697 36017 ft 479 kts 299°
2026-05-05 15:29 54.04456 0.18598 36018 ft 477 kts 293°
2026-05-05 15:30 54.07152 0.08279 36017 ft 477 kts 292°
2026-05-05 15:30 54.09801 -0.02094 36018 ft 478 kts 292°
2026-05-05 15:31 54.12430 -0.12436 36017 ft 473 kts 292°
2026-05-05 15:31 54.15035 -0.22694 36017 ft 470 kts 291°
2026-05-05 15:32 54.17624 -0.32926 36026 ft 470 kts 291°
2026-05-05 15:32 54.20207 -0.43177 36026 ft 470 kts 291°
2026-05-05 15:33 54.22783 -0.53452 36033 ft 471 kts 291°
2026-05-05 15:33 54.25353 -0.63751 36037 ft 471 kts 291°
2026-05-05 15:34 54.27913 -0.74055 36036 ft 470 kts 291°
2026-05-05 15:34 54.30464 -0.84371 36047 ft 471 kts 291°
2026-05-05 15:35 54.33007 -0.94702 36043 ft 471 kts 291°
2026-05-05 15:35 54.35543 -1.05054 36052 ft 471 kts 291°
2026-05-05 15:36 54.38071 -1.15429 36036 ft 471 kts 291°
2026-05-05 15:36 54.40589 -1.25808 36048 ft 471 kts 291°
2026-05-05 15:37 54.43100 -1.36209 36045 ft 471 kts 291°
2026-05-05 15:37 54.45603 -1.46618 36043 ft 472 kts 291°
2026-05-05 15:38 54.48098 -1.57053 36036 ft 472 kts 291°
2026-05-05 15:38 54.50585 -1.67506 36046 ft 472 kts 291°
2026-05-05 15:39 54.53064 -1.77971 36049 ft 472 kts 291°
2026-05-05 15:39 54.55516 -1.88381 36059 ft 472 kts 290°
2026-05-05 15:40 54.57974 -1.98860 36051 ft 472 kts 290°
2026-05-05 15:40 54.60441 -2.09422 36047 ft 471 kts 290°
2026-05-05 15:41 54.62879 -2.19915 36056 ft 471 kts 290°
2026-05-05 15:41 54.65287 -2.30331 36057 ft 470 kts 290°
2026-05-05 15:42 54.67700 -2.40826 36054 ft 470 kts 290°
2026-05-05 15:42 54.70102 -2.51317 36059 ft 469 kts 290°
2026-05-05 15:43 54.72492 -2.61813 36051 ft 468 kts 290°
2026-05-05 15:43 54.74867 -2.72295 36044 ft 468 kts 290°
2026-05-05 15:44 54.77233 -2.82789 36046 ft 468 kts 290°
2026-05-05 15:44 54.79590 -2.93294 36056 ft 467 kts 289°
2026-05-05 15:45 54.81940 -3.03779 36036 ft 467 kts 290°
2026-05-05 15:45 54.84751 -3.13952 36231 ft 468 kts 295°
2026-05-05 15:45 54.86207 -3.18972 36518 ft 465 kts 295°
2026-05-05 15:46 54.87673 -3.23978 36704 ft 465 kts 295°
2026-05-05 15:46 54.89140 -3.28982 36854 ft 465 kts 295°
2026-05-05 15:46 54.90606 -3.33993 37024 ft 464 kts 295°
2026-05-05 15:46 54.92064 -3.38993 37197 ft 464 kts 295°
2026-05-05 15:47 54.93516 -3.43990 37376 ft 463 kts 295°
2026-05-05 15:47 54.94474 -3.47298 37492 ft 462 kts 295°
2026-05-05 15:47 54.96403 -3.53973 37706 ft 461 kts 295°
2026-05-05 15:47 54.97840 -3.58959 37849 ft 461 kts 295°
2026-05-05 15:48 54.99273 -3.63944 38012 ft 460 kts 295°
2026-05-05 15:48 55.02143 -3.73960 38066 ft 463 kts 295°
2026-05-05 15:49 55.05013 -3.84011 38060 ft 463 kts 295°
2026-05-05 15:49 55.07870 -3.94061 38054 ft 462 kts 295°
2026-05-05 15:50 55.10718 -4.04123 38054 ft 462 kts 295°
2026-05-05 15:50 55.13553 -4.14188 38055 ft 462 kts 295°
2026-05-05 15:51 55.16383 -4.24272 38054 ft 461 kts 294°
2026-05-05 15:51 55.19195 -4.34342 38054 ft 461 kts 294°
2026-05-05 15:52 55.22001 -4.44430 38054 ft 461 kts 294°
2026-05-05 15:52 55.24780 -4.54470 38054 ft 461 kts 294°
2026-05-05 15:53 55.27568 -4.64587 38055 ft 461 kts 294°
2026-05-05 15:53 55.30337 -4.74711 38053 ft 460 kts 292°
2026-05-05 15:54 55.32377 -4.85329 38054 ft 459 kts 284°
2026-05-05 15:54 55.34026 -4.96150 38055 ft 459 kts 283°
2026-05-05 15:55 55.35605 -5.06996 38060 ft 458 kts 283°
2026-05-05 15:55 55.37180 -5.17877 38063 ft 459 kts 283°
2026-05-05 15:56 55.38753 -5.28738 38063 ft 459 kts 283°
2026-05-05 15:56 55.40324 -5.39614 38073 ft 459 kts 283°
2026-05-05 15:57 55.41883 -5.50495 38072 ft 459 kts 283°
2026-05-05 15:57 55.43432 -5.61392 38073 ft 458 kts 283°
2026-05-05 15:58 55.44967 -5.72262 38076 ft 458 kts 283°
2026-05-05 15:58 55.46494 -5.83154 38073 ft 457 kts 283°
2026-05-05 15:59 55.48011 -5.94047 38081 ft 457 kts 283°
2026-05-05 15:59 55.49515 -6.04926 38085 ft 457 kts 283°
2026-05-05 16:00 55.51009 -6.15808 38094 ft 457 kts 282°
2026-05-05 16:00 55.52492 -6.26694 38095 ft 457 kts 282°
2026-05-05 16:01 55.53966 -6.37595 38102 ft 457 kts 282°
2026-05-05 16:01 55.55424 -6.48448 38102 ft 457 kts 282°
2026-05-05 16:02 55.56880 -6.59379 38099 ft 457 kts 282°
2026-05-05 16:02 55.58816 -6.70093 38100 ft 458 kts 289°
2026-05-05 16:03 55.61113 -6.80611 38104 ft 459 kts 290°
2026-05-05 16:03 55.63453 -6.91136 38080 ft 459 kts 290°
2026-05-05 16:04 55.65778 -7.01675 38085 ft 459 kts 290°
2026-05-05 16:04 55.68086 -7.12227 38087 ft 459 kts 290°
2026-05-05 16:05 55.70380 -7.22791 38104 ft 459 kts 290°
2026-05-05 16:05 55.72293 -7.31653 38117 ft 459 kts 290°
2026-05-05 16:06 55.74568 -7.42227 38118 ft 459 kts 290°
2026-05-05 16:06 55.76821 -7.52749 38119 ft 459 kts 290°
2026-05-05 16:07 55.79079 -7.63347 38118 ft 459 kts 290°
2026-05-05 16:07 55.81325 -7.73956 38119 ft 459 kts 289°
2026-05-05 16:08 55.83563 -7.84572 38119 ft 458 kts 289°
2026-05-05 16:08 55.85790 -7.95196 38119 ft 458 kts 289°
2026-05-05 16:09 55.88009 -8.05831 38119 ft 458 kts 289°
2026-05-05 16:09 55.90219 -8.16487 38119 ft 458 kts 289°
2026-05-05 16:10 55.92416 -8.27145 38119 ft 458 kts 289°
2026-05-05 16:10 55.94604 -8.37807 38119 ft 458 kts 289°
2026-05-05 16:11 55.96787 -8.48500 38128 ft 459 kts 289°
2026-05-05 16:12 56.01127 -8.69938 38129 ft 459 kts 289°
2026-05-05 16:13 56.06466 -8.96628 38145 ft 457 kts 288°
2026-05-05 16:13 56.08593 -9.07350 38134 ft 457 kts 288°
2026-05-05 16:14 56.12823 -9.28892 38152 ft 457 kts 288°
2026-05-05 16:15 56.17003 -9.50392 38135 ft 458 kts 288°
2026-05-05 16:16 56.21164 -9.72049 38151 ft 459 kts 288°
2026-05-05 16:17 56.24266 -9.88352 38134 ft 460 kts 288°
2026-05-05 16:18 56.27335 -10.04718 38132 ft 460 kts 287°
2026-05-05 16:19 56.30108 -10.21256 38143 ft 460 kts 285°
2026-05-05 16:19 56.32838 -10.37808 38148 ft 459 kts 285°
2026-05-05 16:20 56.36490 -10.59859 38141 ft 458 kts 285°
2026-05-05 16:22 56.40993 -10.87420 38151 ft 458 kts 285°
2026-05-05 16:23 56.44549 -11.09513 38143 ft 458 kts 285°
2026-05-05 16:23 56.47191 -11.26099 38141 ft 458 kts 285°
2026-05-05 16:24 56.48938 -11.37166 38147 ft 458 kts 285°
2026-05-05 16:25 56.51539 -11.53781 38144 ft 457 kts 285°
2026-05-05 16:25 56.54109 -11.70349 38151 ft 457 kts 285°
2026-05-05 16:26 56.57514 -11.92581 38140 ft 458 kts 285°
2026-05-05 16:27 56.59205 -12.03724 38150 ft 458 kts 285°
2026-05-05 16:27 56.60887 -12.14886 38140 ft 458 kts 285°
2026-05-05 16:28 56.62556 -12.26039 38154 ft 457 kts 285°
2026-05-05 16:28 56.64213 -12.37188 38140 ft 457 kts 284°
2026-05-05 16:29 56.65862 -12.48358 38144 ft 457 kts 284°
2026-05-05 16:29 56.67498 -12.59523 38144 ft 458 kts 284°
2026-05-05 16:30 56.69125 -12.70711 38143 ft 457 kts 284°
2026-05-05 16:30 56.70743 -12.81902 38140 ft 457 kts 284°
2026-05-05 16:31 56.72348 -12.93090 38143 ft 457 kts 284°
2026-05-05 16:31 56.73945 -13.04287 38146 ft 457 kts 284°
2026-05-05 16:32 56.75530 -13.15496 38147 ft 457 kts 284°
2026-05-05 16:32 56.77106 -13.26717 38140 ft 457 kts 284°
2026-05-05 16:33 56.78670 -13.37938 38140 ft 457 kts 284°
2026-05-05 16:33 56.80216 -13.49106 38152 ft 456 kts 284°
2026-05-05 16:34 56.81759 -13.60344 38150 ft 457 kts 284°
2026-05-05 16:34 56.83295 -13.71601 38155 ft 457 kts 284°
2026-05-05 16:35 56.84820 -13.82865 38161 ft 457 kts 284°
2026-05-05 16:35 56.86335 -13.94144 38155 ft 457 kts 283°
2026-05-05 16:36 56.87842 -14.05435 38157 ft 457 kts 283°
2026-05-05 16:36 56.89338 -14.16732 38156 ft 457 kts 283°
2026-05-05 16:37 56.90824 -14.28041 38158 ft 457 kts 283°
2026-05-05 16:37 56.92300 -14.39360 38157 ft 457 kts 283°
2026-05-05 16:38 56.93767 -14.50693 38150 ft 458 kts 283°
2026-05-05 16:38 56.95222 -14.62035 38158 ft 457 kts 283°
2026-05-05 16:39 56.96666 -14.73378 38149 ft 457 kts 283°
2026-05-05 16:39 56.98093 -14.84673 38147 ft 458 kts 283°
2026-05-05 16:40 56.99525 -14.96045 38149 ft 458 kts 284°
2026-05-05 16:40 57.01623 -15.07139 38143 ft 457 kts 291°
2026-05-05 16:41 57.04002 -15.17893 38152 ft 458 kts 292°
2026-05-05 16:41 57.06435 -15.28712 38146 ft 458 kts 292°
2026-05-05 16:42 57.08855 -15.39543 38143 ft 458 kts 292°
2026-05-05 16:42 57.11257 -15.50394 38151 ft 458 kts 292°
2026-05-05 16:43 57.13644 -15.61263 38149 ft 458 kts 291°
2026-05-05 16:43 57.16023 -15.72149 38152 ft 458 kts 291°
2026-05-05 16:44 57.18395 -15.83050 38149 ft 458 kts 291°
2026-05-05 16:44 57.20753 -15.93950 38156 ft 457 kts 291°
2026-05-05 16:45 57.23100 -16.04851 38160 ft 457 kts 291°
2026-05-05 16:45 57.25438 -16.15774 38149 ft 457 kts 291°
2026-05-05 16:46 57.27766 -16.26710 38149 ft 457 kts 291°
2026-05-05 16:46 57.30088 -16.37668 38158 ft 458 kts 291°
2026-05-05 16:47 57.32397 -16.48636 38167 ft 458 kts 291°
2026-05-05 16:47 57.34706 -16.59651 38161 ft 459 kts 291°
2026-05-05 16:48 57.37001 -16.70661 38165 ft 459 kts 291°
2026-05-05 16:48 57.39289 -16.81697 38165 ft 458 kts 291°
2026-05-05 16:49 57.41552 -16.92669 38165 ft 459 kts 291°
2026-05-05 16:49 57.43819 -17.03731 38163 ft 459 kts 291°
2026-05-05 16:50 57.46078 -17.14806 38160 ft 459 kts 291°
2026-05-05 16:50 57.48329 -17.25905 38164 ft 459 kts 291°
2026-05-05 16:51 57.50563 -17.36993 38164 ft 459 kts 291°
2026-05-05 16:51 57.52794 -17.48124 38168 ft 459 kts 291°
2026-05-05 16:52 57.55013 -17.59258 38165 ft 459 kts 291°
2026-05-05 16:52 57.57224 -17.70402 38168 ft 458 kts 291°
2026-05-05 16:53 57.59422 -17.81551 38167 ft 458 kts 291°
2026-05-05 16:53 57.61595 -17.92633 38169 ft 458 kts 291°
2026-05-05 16:54 57.63773 -18.03804 38175 ft 458 kts 291°
2026-05-05 16:54 57.65938 -18.14982 38188 ft 458 kts 290°
2026-05-05 16:55 57.67744 -18.24353 38193 ft 458 kts 290°
2026-05-05 16:55 57.69892 -18.35552 38191 ft 458 kts 290°
2026-05-05 16:56 57.72035 -18.46792 38193 ft 459 kts 290°
2026-05-05 16:56 57.74168 -18.58046 38192 ft 459 kts 290°
2026-05-05 16:57 57.76285 -18.69300 38192 ft 459 kts 290°
2026-05-05 16:57 57.78385 -18.80509 38200 ft 459 kts 290°
2026-05-05 16:58 57.80489 -18.91796 38199 ft 459 kts 290°
2026-05-05 16:58 57.82583 -19.03102 38203 ft 459 kts 290°
2026-05-05 16:59 57.84668 -19.14429 38201 ft 459 kts 290°
2026-05-05 16:59 57.86739 -19.25758 38201 ft 458 kts 290°
2026-05-05 17:00 57.88799 -19.37084 38203 ft 458 kts 290°
2026-05-05 17:00 57.90846 -19.48412 38203 ft 458 kts 290°
2026-05-05 17:01 57.92882 -19.59744 38203 ft 457 kts 290°
2026-05-05 17:01 57.94908 -19.71095 38203 ft 457 kts 290°
2026-05-05 17:02 57.96921 -19.82439 38201 ft 456 kts 290°
2026-05-05 17:02 57.98921 -19.93788 38199 ft 457 kts 290°
2026-05-05 17:03 58.00193 -20.05547 38205 ft 460 kts 278°
2026-05-05 17:03 58.00731 -20.17559 38203 ft 461 kts 276°
2026-05-05 17:04 58.01165 -20.29636 38203 ft 461 kts 276°
2026-05-05 17:04 58.01586 -20.41696 38201 ft 460 kts 276°
2026-05-05 17:05 58.02007 -20.53727 38202 ft 460 kts 276°
2026-05-05 17:05 58.02422 -20.65738 38201 ft 459 kts 276°
2026-05-05 17:06 58.02826 -20.77762 38202 ft 458 kts 276°
2026-05-05 17:06 58.03219 -20.89763 38203 ft 459 kts 276°
2026-05-05 17:07 58.03600 -21.01775 38200 ft 458 kts 276°
2026-05-05 17:07 58.03968 -21.13715 38203 ft 458 kts 276°
2026-05-05 17:08 58.04329 -21.25784 38201 ft 458 kts 276°
2026-05-05 17:08 58.04675 -21.37782 38211 ft 458 kts 276°
2026-05-05 17:09 58.05010 -21.49724 38208 ft 458 kts 276°
2026-05-05 17:09 58.05334 -21.61751 38209 ft 459 kts 276°
2026-05-05 17:10 58.05648 -21.73788 38207 ft 459 kts 276°
2026-05-05 17:10 58.05950 -21.85839 38213 ft 459 kts 275°
2026-05-05 17:11 58.06242 -21.97888 38210 ft 459 kts 275°
2026-05-05 17:11 58.06523 -22.09929 38210 ft 459 kts 275°
2026-05-05 17:12 58.06791 -22.21985 38213 ft 459 kts 275°
2026-05-05 17:12 58.07047 -22.34042 38213 ft 459 kts 275°
2026-05-05 17:13 58.07292 -22.46081 38213 ft 459 kts 275°
2026-05-05 17:13 58.07527 -22.58128 38213 ft 459 kts 275°
2026-05-05 17:14 58.07748 -22.70162 38220 ft 458 kts 275°
2026-05-05 17:14 58.07959 -22.82197 38231 ft 458 kts 275°
2026-05-05 17:15 58.08160 -22.94225 38257 ft 457 kts 275°
2026-05-05 17:15 58.08348 -23.06244 38275 ft 457 kts 275°
2026-05-05 17:16 58.08523 -23.18267 38278 ft 458 kts 275°
2026-05-05 17:16 58.08689 -23.30286 38274 ft 457 kts 275°
2026-05-05 17:17 58.08842 -23.42206 38273 ft 457 kts 275°
2026-05-05 17:17 58.08984 -23.54230 38278 ft 458 kts 275°
2026-05-05 17:18 58.09117 -23.66259 38298 ft 458 kts 275°
2026-05-05 17:18 58.09238 -23.78303 38303 ft 458 kts 275°
2026-05-05 17:19 58.09348 -23.90360 38312 ft 459 kts 275°
2026-05-05 17:19 58.09445 -24.02419 38312 ft 459 kts 274°
2026-05-05 17:20 58.09532 -24.14467 38312 ft 459 kts 274°
2026-05-05 17:20 58.09607 -24.26526 38312 ft 459 kts 274°
2026-05-05 17:21 58.09671 -24.38584 38312 ft 459 kts 274°
2026-05-05 17:22 58.09744 -24.56584 38312 ft 458 kts 274°
2026-05-05 17:22 58.09779 -24.68630 38312 ft 458 kts 274°
2026-05-05 17:23 58.09804 -24.80680 38312 ft 459 kts 274°
2026-05-05 17:23 58.09815 -24.92735 38312 ft 459 kts 274°
2026-05-05 17:24 58.09816 -25.04799 38319 ft 459 kts 274°
2026-05-05 17:24 58.09807 -25.16863 38321 ft 459 kts 274°
2026-05-05 17:25 58.09783 -25.28950 38321 ft 460 kts 274°
2026-05-05 17:25 58.09750 -25.41054 38321 ft 461 kts 274°
2026-05-05 17:26 58.09706 -25.53163 38321 ft 461 kts 274°
2026-05-05 17:26 58.09650 -25.65295 38322 ft 463 kts 274°
2026-05-05 17:27 58.09581 -25.77461 38321 ft 463 kts 274°
2026-05-05 17:27 58.09503 -25.89631 38321 ft 463 kts 274°
2026-05-05 17:28 58.09412 -26.01819 38322 ft 464 kts 274°
2026-05-05 17:28 58.09309 -26.14018 38331 ft 464 kts 274°
2026-05-05 17:29 58.09192 -26.26225 38330 ft 464 kts 274°
2026-05-05 17:29 58.09066 -26.38417 38331 ft 464 kts 274°
2026-05-05 17:30 58.08929 -26.50586 38329 ft 463 kts 274°
2026-05-05 17:30 58.08781 -26.62657 38330 ft 462 kts 274°
2026-05-05 17:31 58.08621 -26.74776 38330 ft 461 kts 274°
2026-05-05 17:31 58.08449 -26.86881 38330 ft 461 kts 273°
2026-05-05 17:32 58.08265 -26.98964 38329 ft 460 kts 273°
2026-05-05 17:32 58.08070 -27.11036 38338 ft 459 kts 273°
2026-05-05 17:33 58.07866 -27.23086 38339 ft 458 kts 273°
2026-05-05 17:33 58.07651 -27.35122 38340 ft 458 kts 273°
2026-05-05 17:34 58.07424 -27.47142 38339 ft 458 kts 273°
2026-05-05 17:34 58.07185 -27.59166 38339 ft 458 kts 273°
2026-05-05 17:35 58.06934 -27.71198 38340 ft 458 kts 272°
2026-05-05 17:35 58.06674 -27.83212 38339 ft 458 kts 272°
2026-05-05 17:36 58.06402 -27.95243 38343 ft 458 kts 272°
2026-05-05 17:36 58.06116 -28.07273 38385 ft 459 kts 272°
2026-05-05 17:37 58.05820 -28.19300 38386 ft 458 kts 272°
2026-05-05 17:37 58.05516 -28.31247 38385 ft 458 kts 272°
2026-05-05 17:38 58.05199 -28.43239 38385 ft 458 kts 272°
2026-05-05 17:38 58.04870 -28.55245 38389 ft 457 kts 272°
2026-05-05 17:39 58.04529 -28.67222 38395 ft 456 kts 272°
2026-05-05 17:39 58.04181 -28.79159 38396 ft 455 kts 271°
2026-05-05 17:40 58.03820 -28.91093 38395 ft 455 kts 271°
2026-05-05 17:40 58.03450 -29.02989 38394 ft 454 kts 271°
2026-05-05 17:41 58.03067 -29.14888 38395 ft 454 kts 271°
2026-05-05 17:41 58.02673 -29.26768 38395 ft 454 kts 271°
2026-05-05 17:42 58.02269 -29.38632 38395 ft 454 kts 271°
2026-05-05 17:42 58.01855 -29.50501 38394 ft 454 kts 270°
2026-05-05 17:43 58.01430 -29.62373 38394 ft 454 kts 270°
2026-05-05 17:43 58.00994 -29.74243 38400 ft 454 kts 270°
2026-05-05 17:44 58.00623 -29.84108 38414 ft 454 kts 270°
2026-05-05 17:44 58.00170 -29.95978 38398 ft 454 kts 270°
2026-05-05 17:45 58.00312 -30.07792 38398 ft 450 kts 277°
2026-05-05 17:45 58.00732 -30.19558 38404 ft 450 kts 278°
2026-05-05 17:46 58.01188 -30.31324 38401 ft 450 kts 278°
2026-05-05 17:46 58.01628 -30.43087 38404 ft 449 kts 277°
2026-05-05 17:47 58.02047 -30.54829 38398 ft 449 kts 277°
2026-05-05 17:47 58.02452 -30.66571 38409 ft 449 kts 277°
2026-05-05 17:48 58.02845 -30.78305 38398 ft 448 kts 277°
2026-05-05 17:48 58.03228 -30.90038 38421 ft 448 kts 277°
2026-05-05 17:49 58.03601 -31.01781 38413 ft 448 kts 277°
2026-05-05 17:49 58.03963 -31.13525 38417 ft 448 kts 276°
2026-05-05 17:50 58.04313 -31.25196 38379 ft 448 kts 276°
2026-05-05 17:50 58.04653 -31.36953 38376 ft 449 kts 276°
2026-05-05 17:51 58.04983 -31.48739 38376 ft 450 kts 276°
2026-05-05 17:51 58.05302 -31.60527 38376 ft 450 kts 276°
2026-05-05 17:52 58.05610 -31.72331 38376 ft 451 kts 275°
2026-05-05 17:52 58.05910 -31.84150 38376 ft 450 kts 275°
2026-05-05 17:53 58.06197 -31.95972 38376 ft 451 kts 275°
2026-05-05 17:53 58.06472 -32.07812 38376 ft 451 kts 275°
2026-05-05 17:54 58.06738 -32.19637 38376 ft 451 kts 275°
2026-05-05 17:54 58.06994 -32.31472 38376 ft 451 kts 275°
2026-05-05 17:55 58.07237 -32.43322 38376 ft 452 kts 275°
2026-05-05 17:55 58.07469 -32.55173 38376 ft 451 kts 275°
2026-05-05 17:56 58.07691 -32.67028 38376 ft 452 kts 275°
2026-05-05 17:56 58.07904 -32.78893 38376 ft 452 kts 274°
2026-05-05 17:57 58.08104 -32.90773 38382 ft 453 kts 274°
2026-05-05 17:57 58.08294 -33.02665 38385 ft 453 kts 274°
2026-05-05 17:58 58.08473 -33.14586 38385 ft 454 kts 274°
2026-05-05 17:58 58.08640 -33.26529 38386 ft 455 kts 274°
2026-05-05 17:59 58.08797 -33.38498 38385 ft 456 kts 273°
2026-05-05 17:59 58.08943 -33.50501 38385 ft 457 kts 273°
2026-05-05 18:00 58.09078 -33.62441 38387 ft 458 kts 273°
2026-05-05 18:00 58.09202 -33.74477 38385 ft 459 kts 273°
2026-05-05 18:01 58.09314 -33.86530 38385 ft 459 kts 272°
2026-05-05 18:01 58.09416 -33.98598 38386 ft 459 kts 272°
2026-05-05 18:02 58.09505 -34.10663 38386 ft 459 kts 272°
2026-05-05 18:02 58.09585 -34.22733 38385 ft 460 kts 272°
2026-05-05 18:03 58.09652 -34.34828 38386 ft 460 kts 272°
2026-05-05 18:03 58.09707 -34.46916 38385 ft 461 kts 271°
2026-05-05 18:04 58.09752 -34.59096 38385 ft 465 kts 271°
2026-05-05 18:04 58.09786 -34.71318 38384 ft 466 kts 271°
2026-05-05 18:05 58.09809 -34.83552 38384 ft 466 kts 271°
2026-05-05 18:05 58.09819 -34.95819 38418 ft 467 kts 271°
2026-05-05 18:06 58.09816 -35.08105 38427 ft 468 kts 271°
2026-05-05 18:06 58.09802 -35.20418 38434 ft 469 kts 271°
2026-05-05 18:07 58.09777 -35.32767 38434 ft 471 kts 270°
2026-05-05 18:07 58.09740 -35.45154 38433 ft 472 kts 270°
2026-05-05 18:08 58.09689 -35.57502 38432 ft 473 kts 270°
2026-05-05 18:08 58.09627 -35.69952 38436 ft 474 kts 270°
2026-05-05 18:09 58.09552 -35.82439 38430 ft 475 kts 269°
2026-05-05 18:09 58.09464 -35.94935 38429 ft 476 kts 269°
2026-05-05 18:10 58.09366 -36.07450 38428 ft 476 kts 269°
2026-05-05 18:10 58.09254 -36.19965 38435 ft 476 kts 269°
2026-05-05 18:11 58.09130 -36.32487 38432 ft 477 kts 269°
2026-05-05 18:11 58.08995 -36.45000 38428 ft 476 kts 269°
2026-05-05 18:12 58.08846 -36.57532 38431 ft 476 kts 269°
2026-05-05 18:12 58.08685 -36.70046 38437 ft 476 kts 269°
2026-05-05 18:13 58.08512 -36.82564 38432 ft 477 kts 269°
2026-05-05 18:13 58.08327 -36.95084 38426 ft 478 kts 269°
2026-05-05 18:14 58.08129 -37.07646 38434 ft 478 kts 268°
2026-05-05 18:14 58.07918 -37.20205 38426 ft 479 kts 268°
2026-05-05 18:15 58.07695 -37.32803 38368 ft 480 kts 268°
2026-05-05 18:15 58.07457 -37.45454 38304 ft 482 kts 268°
2026-05-05 18:16 58.07208 -37.58134 38228 ft 484 kts 268°
2026-05-05 18:16 58.06945 -37.70863 38222 ft 486 kts 267°
2026-05-05 18:17 58.06668 -37.83627 38222 ft 486 kts 267°
2026-05-05 18:17 58.06380 -37.96318 38222 ft 488 kts 267°
2026-05-05 18:18 58.06073 -38.09190 38220 ft 488 kts 267°
2026-05-05 18:18 58.05758 -38.21893 38208 ft 487 kts 266°
2026-05-05 18:19 58.05429 -38.34676 38213 ft 487 kts 266°
2026-05-05 18:19 58.05088 -38.47438 38209 ft 486 kts 266°
2026-05-05 18:20 58.04733 -38.60197 38213 ft 486 kts 266°
2026-05-05 18:20 58.04366 -38.72938 38201 ft 486 kts 266°
2026-05-05 18:21 58.03988 -38.85664 38202 ft 486 kts 266°
2026-05-05 18:21 58.03793 -38.92037 38200 ft 486 kts 266°